[[{"header":{"parameterUnit":"m.s-1","parameterCategory":1,"la1":30.2992,"la2":30.254,"lo1":-89.0895,"lo2":-89.0443,"dy":0.0025,"dx":0.0025,"nx":19,"ny":19,"refTime":"2026-03-25T21:00:00:Z","depth":0,"parameterNumber":2,"parameterNumberName":"U-component_of_WINDS"},"data":[0,0,0,-4.1559,-4.1563,-4.1727,-4.1728,-4.1952,-4.1954,0,0,0,0,0,0,0,0,0,0,0,-4.1516,-4.1517,-4.1559,-4.1563,-4.1727,-4.1728,-4.1952,-4.1954,0,0,0,0,0,0,0,0,0,0,0,-4.1515,-4.1517,-4.1519,-4.1564,-4.1727,-4.1728,-4.1951,-4.1823,0,0,0,0,0,0,0,0,0,0,-4.1661,-4.1625,-4.1516,-4.1519,-4.1565,-4.1727,-4.1728,-4.1816,-4.1831,-4.1882,0,-4.1927,0,-4.1944,-4.197,-4.197,0,0,0,-4.1559,-4.1613,-4.1653,-4.1519,-4.1566,-4.1727,-4.1652,-4.1824,-4.1841,-4.1902,-4.193,-4.1938,-4.1948,-4.1971,-4.1972,-4.2279,-4.228,0,0,-4.155,-4.1548,-4.1641,-4.1663,-4.1636,-4.1647,-4.1657,-4.1834,-4.1866,-4.1931,-4.1943,-4.1952,-4.1973,-4.1974,-4.2277,-4.2279,0,0,0,-4.1527,-4.1542,-4.1577,-4.1655,-4.1683,-4.1652,-4.1664,-4.1858,-4.187,-4.1946,-4.1954,-4.1974,-4.1977,-4.2275,-4.2278,-4.2353,0,0,0,-4.1521,-4.1528,-4.1573,-4.1574,-4.168,-4.1772,-4.1684,-4.1857,-4.1877,-4.1953,-4.1974,-4.1979,-4.2274,-4.2277,-4.2347,-4.2388,0,0,0,-4.1503,-4.1526,-4.1552,-4.1573,-4.1644,-4.1769,-4.1791,-4.1862,-4.1883,-4.1971,-4.198,-4.2272,-4.2276,-4.2342,-4.238,-4.2468,0,0,0,-4.1483,-4.1616,-4.1553,-4.1705,-4.1642,-4.1815,-4.179,-4.1919,-4.2003,-4.1975,-4.2274,-4.2278,-4.234,-4.2374,-4.2463,-4.254,-4.2573,0,0,-4.1649,-4.1636,-4.1726,-4.1674,-4.1857,-4.179,-4.1986,-4.2065,-4.2077,-4.2212,-4.2219,-4.2349,-4.2379,-4.2467,-4.2761,-4.2787,0,0,0,-4.1777,-4.1842,-4.1891,-4.1971,-4.2036,-4.2095,-4.2146,-4.2177,-4.2291,-4.2145,-4.2407,-4.2424,-4.2476,-4.2513,-4.2535,-4.258,-4.2295,-4.2295,-4.2295,-4.2005,-4.2014,-4.2164,-4.2194,-4.2273,-4.2326,-4.2391,-4.2442,-4.2426,-4.2489,-4.2527,-4.2705,-4.2748,-4.2765,-4.2811,-4.2572,-4.2572,-4.2572,-4.2573,-4.2248,-4.234,-4.2321,-4.2458,-4.2468,-4.2585,-4.2645,-4.2631,-4.2743,-4.2675,-4.2721,-4.2644,-4.2793,-4.2834,-4.2578,-4.2577,-4.2577,-4.2576,-4.2576,-4.2396,-4.2441,-4.2477,-4.2597,-4.269,-4.2717,-4.2826,-4.2832,-4.2839,-4.2885,-4.2927,-4.2926,-4.2924,-4.2905,-4.2906,-4.2907,-4.2907,-4.2908,-4.2908,-4.2533,-4.2572,-4.2662,-4.2746,-4.28,-4.2873,-4.2933,-4.2988,-4.305,-4.3046,-4.3046,-4.3026,-4.2807,-4.275,-4.2917,-4.2916,-4.2915,-4.2914,-4.2913,-4.277,-4.2719,-4.2857,-4.2912,-4.3014,-4.3107,-4.3115,-4.3228,-4.3275,-4.3329,-4.3302,-4.3139,-4.3125,-4.3108,-4.3061,-4.3299,-4.3299,-4.3299,-4.3299,-4.2893,-4.2888,-4.3033,-4.3121,-4.3209,-4.3232,-4.3393,-4.3444,-4.3488,-4.3519,-4.3487,-4.3426,-4.3408,-4.3405,-4.3382,-4.3338,-4.3641,-4.3641,-4.3641,-4.3039,-4.3044,-4.3177,-4.3219,-4.33,-4.3371,-4.3524,-4.3629,-4.3669,-4.3655,-4.3543,-4.3529,-4.3431,-4.3399,-4.3377,-4.334,-4.326,0,0]},{"header":{"parameterUnit":"m.s-1","parameterCategory":1,"la1":30.2992,"la2":30.254,"lo1":-89.0895,"lo2":-89.0443,"dy":0.0025,"dx":0.0025,"nx":19,"ny":19,"refTime":"2026-03-25T21:00:00:Z","depth":0,"parameterNumber":3,"parameterNumberName":"V-component_of_WINDS"},"data":[0,0,0,3.0668,3.0669,3.0731,3.0732,3.0779,3.0779,0,0,0,0,0,0,0,0,0,0,0,3.0631,3.063,3.0668,3.0669,3.0731,3.0732,3.0779,3.0779,0,0,0,0,0,0,0,0,0,0,0,3.0631,3.0631,3.063,3.0669,3.0731,3.0732,3.0779,3.0743,0,0,0,0,0,0,0,0,0,0,3.0688,3.0636,3.0631,3.063,3.0669,3.0731,3.0732,3.0742,3.0745,3.0737,0,3.0726,0,3.0753,3.078,3.078,0,0,0,3.0682,3.0633,3.0667,3.063,3.067,3.0731,3.0707,3.0744,3.0748,3.0742,3.0727,3.073,3.0754,3.078,3.0781,3.0694,3.0693,0,0,3.0679,3.0631,3.0664,3.0668,3.0658,3.0705,3.0708,3.0747,3.0727,3.0728,3.0732,3.0755,3.0781,3.0781,3.0695,3.0694,0,0,0,3.066,3.0628,3.0662,3.0665,3.0679,3.0706,3.0711,3.0726,3.0741,3.0732,3.0756,3.0781,3.0781,3.0697,3.0695,3.0599,0,0,0,3.0658,3.0618,3.066,3.0631,3.0678,3.0703,3.0688,3.0738,3.0744,3.0755,3.0781,3.0781,3.0698,3.0696,3.0604,3.056,0,0,0,3.0633,3.0615,3.0618,3.0629,3.0654,3.0704,3.0722,3.0741,3.0758,3.078,3.0781,3.0699,3.0696,3.0609,3.0568,3.0524,0,0,0,3.0591,3.0529,3.0615,3.0555,3.0653,3.0645,3.0722,3.0718,3.0726,3.0781,3.0698,3.0695,3.061,3.0573,3.0529,3.0478,3.0453,0,0,3.0487,3.0515,3.0484,3.0562,3.0527,3.0639,3.0589,3.064,3.0685,3.0688,3.0687,3.0602,3.0569,3.0525,3.033,3.0309,0,0,0,3.0434,3.0411,3.0412,3.0419,3.0458,3.0489,3.0553,3.0573,3.0579,3.0678,3.0577,3.0558,3.0534,3.0512,3.0495,3.0478,3.0683,3.0683,3.0684,3.0215,3.0279,3.0231,3.0302,3.0308,3.0377,3.0387,3.0425,3.0485,3.046,3.0461,3.0335,3.0307,3.0294,3.0276,3.044,3.044,3.044,3.0439,3.0067,3.0044,3.0129,3.0113,3.018,3.0167,3.0231,3.0275,3.0272,3.0339,3.0321,3.0387,3.027,3.0257,3.0433,3.0434,3.0435,3.0435,3.0436,2.993,2.993,2.9957,2.9976,2.9982,3.0057,3.0051,3.0112,3.0169,3.0152,3.016,3.0161,3.017,3.0152,3.0151,3.0151,3.0151,3.015,3.015,2.9776,2.981,2.9799,2.9838,2.9852,2.9877,2.9948,2.9963,2.9995,3.004,3.004,3.0102,3.0248,3.0282,3.0143,3.0145,3.0145,3.0146,3.0146,2.96,2.965,2.9632,2.9646,2.9699,2.9702,2.9782,2.9807,2.9829,2.9824,2.9891,2.9989,3.0022,3.0036,3.0065,2.9878,2.9878,2.9878,2.9878,2.9483,2.9507,2.9504,2.9523,2.9548,2.9619,2.9597,2.9652,2.9716,2.9733,2.977,2.9814,2.9826,2.9852,2.987,2.9898,2.9673,2.9673,2.9672,2.9378,2.9408,2.9377,2.9443,2.949,2.9527,2.9509,2.9526,2.961,2.9665,2.9748,2.9757,2.9829,2.985,2.9904,2.9931,2.9983,0,0]}]]